• Bienvenue sur Pilotes Québec!
  • Bienvenue sur le site de Pilotes Québec, la nouvelle communauté des pilotes et aviateurs du Québec.
  • L'image de cette semaine nous vient de Denis Morissette!  La photo a été prise à Miguasha, en Gaspésie, lors d'un atterrissage par bon vent de travers et fort vent rabattant en finale.
  • Calendrier des activités
  • sujets récents au forum...
  • Les nouvelles en bref...

Connexion


J'ai oublié mon mot de passe
Renvoyer l'e-mail de confirmation
 

Publicité

Vous aimeriez afficher une publicité pour joindre la communauté des pilotes professionnels et privé du Québec?  Cliquez ici pour en savoir plus!

Conditions actuelles

Click for Quebec, Quebec Forecast

METAR - Québec


2015/07/29 02:00
CYQB 290200Z 34002KT 15SM BKN240 22/16 A2991 RMK CI6 SLP128 DENSITY ALT 1100FT

TAF - Québec


2015/07/28 18:42
TAF CYQB 281738Z 2818/2918 26012KT P6SM FEW040
BECMG 2900/2902 VRB03KT
BECMG 2914/2916 22008KT
RMK NXT FCST BY 290000Z